Location: Presov
(49.0000°N, 21.2500°E)
Time: 19:47:04
(UTC+01:00)

ISS - Visible Passes

Search period start: 07 March 2021 00:00
Search period end: 17 March 2021 00:00
Orbit: 417 x 422 km, 51.6° (Epoch: 07 March)

Date Brightness Start Highest point End Pass type
(mag) Time Alt. Az. Time Alt. Az. Time Alt. Az.
07 Mar -1.6 03:25:48 27° ENE 03:25:48 27° ENE 03:27:31 10° E visible
07 Mar -3.8 04:58:45 18° WNW 05:01:10 74° SSW 05:04:31 10° ESE visible
08 Mar -3.8 04:13:12 62° WNW 04:13:41 83° NNE 04:17:03 10° ESE visible
09 Mar -1.8 03:27:42 29° E 03:27:42 29° E 03:29:31 10° E visible
09 Mar -3.0 05:00:40 17° W 05:02:52 36° SSW 05:05:58 10° SE visible
10 Mar -3.6 04:15:17 52° SW 04:15:27 52° SSW 04:18:43 10° SE visible
11 Mar -1.6 03:30:00 22° ESE 03:30:00 22° ESE 03:31:20 10° ESE visible
11 Mar -1.9 05:02:59 14° WSW 05:04:22 17° SW 05:06:35 10° S visible
12 Mar -2.2 04:17:51 22° SSW 04:17:51 22° SSW 04:19:50 10° SSE visible
